Dobrodošli na spletni strani vremenske postaje Senovo. Vse informacije so informativnega značaja, saj vremenska postaja ni del državne mreže meteoroloških postaj. OBVESTILO: Letni količini padavin navedeni na spletni strani je potrebno prišteti 98,1 mm, zaradi izgube podatkov.


Veter Od: 11-12-2017 04:00 Do: 12-12-2017 10:59 Opozorilo za: Veter Stopnja: Oranžna info button
Dež Od: 11-12-2017 00:00 Do: 16:59 Opozorilo za: Dež Stopnja: Rumena info button

Pogled proti Armezu več informacij Pogled proti Armezu


Lisca več informacij Lisca


Radar strel več informacij blitzortung!


opozorilo za Dež več informacij rain snow radar


Obiščite še:

Template documentation
and downloads

And another site



Weather Underground, zgodovina - Tekstovno

Dnevni povzetek za Avgust 30, 2017 Enote:  Angleško    Metrično   Obe
« Predhodni Dan
Naslednji Dan »
Dnevni Tedenski Mesečni Letni Po meri
  Višja: Nižja: Povprečje:
Temperatura: 84.4 °F 50 °F 65.7 °F
Točka rosišča: 60.4 °F 48.2 °F 52.7 °F
Vlažnost: 95 % 34 % 68 %
Hitrost vetra: 4.5 mph 0 mph 1 mph
Sunki vetra: 9.8 mph - -
Veter:- - SSE
Zračni tlak: 30.1 in 30 in -
Padavine: 0 in    
Historical Graphs
 
 
Tabelarni podarki za Avgust 30, 2017
Čas Temperatura Točka rosišča Zračni tlak Veter Hitrost vetra Sunki vetra Vlažnost Intenziteta padavin (urna)
00:03 55.4 °F 51.3 °F 30.1 in Calm     86 % 0 in
00:08 55.4 °F 51.3 °F 30.1 in Calm     86 % 0 in
00:13 55.2 °F 51.4 °F 30.1 in Calm     87 % 0 in
00:18 55 °F 51.3 °F 30.1 in Calm     87 % 0 in
00:23 55 °F 51.3 °F 30.1 in Calm     87 % 0 in
00:28 54.9 °F 51.1 °F 30.1 in Calm     87 % 0 in
00:33 54.7 °F 50.9 °F 30.1 in Calm     87 % 0 in
00:38 54.7 °F 50.9 °F 30.1 in Calm     87 % 0 in
00:44 54.5 °F 50.7 °F 30.1 in Calm     87 % 0 in
00:48 54.5 °F 51.1 °F 30.1 in Calm     88 % 0 in
00:53 54.3 °F 50.7 °F 30.1 in Calm     88 % 0 in
00:58 54.1 °F 51.1 °F 30.1 in Calm     89 % 0 in
01:04 54.1 °F 50.7 °F 30.1 in Calm     88 % 0 in
01:09 54 °F 50.7 °F 30.1 in Calm     89 % 0 in
01:14 54 °F 50.7 °F 30.1 in Calm     89 % 0 in
01:19 53.8 °F 50.4 °F 30.1 in Calm     88 % 0 in
01:24 53.8 °F 50.5 °F 30.1 in Calm     89 % 0 in
01:29 53.6 °F 50.4 °F 30.1 in Calm     89 % 0 in
01:34 53.6 °F 50.4 °F 30.1 in Calm     89 % 0 in
01:39 53.6 °F 50.4 °F 30.1 in Calm     89 % 0 in
01:44 53.4 °F 50.5 °F 30.1 in Calm     90 % 0 in
01:49 53.4 °F 50.5 °F 30.1 in Calm     90 % 0 in
01:54 53.2 °F 50.4 °F 30.1 in Calm     90 % 0 in
01:59 53.2 °F 50.4 °F 30.1 in Calm     90 % 0 in
02:04 53.1 °F 50.2 °F 30.1 in Calm     90 % 0 in
02:09 53.1 °F 50.2 °F 30.1 in Calm     90 % 0 in
02:14 53.1 °F 50.2 °F 30.1 in Calm     90 % 0 in
02:19 52.9 °F 50.4 °F 30.1 in Calm     91 % 0 in
02:24 52.9 °F 50.4 °F 30.1 in Calm     91 % 0 in
02:29 52.7 °F 50.2 °F 30.1 in Calm     91 % 0 in
02:34 52.7 °F 50.2 °F 30.1 in Calm     91 % 0 in
02:39 52.5 °F 50 °F 30.1 in Calm     91 % 0 in
02:44 52.5 °F 50 °F 30.1 in Calm     91 % 0 in
02:49 52.3 °F 49.8 °F 30.1 in Calm     91 % 0 in
02:59 52.2 °F 49.6 °F 30.1 in Calm     91 % 0 in
03:04 52.2 °F 49.6 °F 30.1 in Calm     91 % 0 in
03:09 52.2 °F 49.6 °F 30.1 in Calm     91 % 0 in
03:14 52 °F 49.5 °F 30.1 in Calm     91 % 0 in
03:19 52 °F 49.5 °F 30.1 in Calm     91 % 0 in
03:24 51.8 °F 49.5 °F 30.1 in Calm     92 % 0 in
03:29 51.8 °F 49.3 °F 30.1 in Calm     91 % 0 in
03:34 51.6 °F 49.5 °F 30 in Calm     92 % 0 in
03:39 51.6 °F 49.5 °F 30 in Calm     92 % 0 in
03:44 51.6 °F 49.5 °F 30 in Calm     92 % 0 in
03:49 51.4 °F 49.3 °F 30.1 in Calm     92 % 0 in
03:54 51.4 °F 49.3 °F 30.1 in Calm     92 % 0 in
03:59 51.3 °F 48.9 °F 30.1 in Calm     92 % 0 in
04:04 51.3 °F 48.9 °F 30 in Calm     92 % 0 in
04:09 51.3 °F 48.9 °F 30 in Calm     92 % 0 in
04:11 51.3 °F 48.9 °F 30 in Calm     92 % 0 in
04:16 51.1 °F 48.7 °F 30 in Calm     92 % 0 in
04:21 51.1 °F 49.1 °F 30 in Calm     93 % 0 in
04:26 51.1 °F 49.1 °F 30 in Calm     93 % 0 in
04:31 50.9 °F 48.7 °F 30 in Calm     92 % 0 in
04:36 50.9 °F 48.9 °F 30 in Calm     93 % 0 in
04:41 50.9 °F 48.9 °F 30 in Calm     93 % 0 in
04:46 50.7 °F 48.7 °F 30 in Calm     93 % 0 in
04:51 50.7 °F 48.7 °F 30 in Calm     93 % 0 in
04:56 50.7 °F 48.7 °F 30 in Calm     93 % 0 in
05:01 50.5 °F 48.6 °F 30.1 in Calm     93 % 0 in
05:06 50.5 °F 48.6 °F 30.1 in Calm     93 % 0 in
05:11 50.5 °F 48.6 °F 30.1 in Calm     93 % 0 in
05:16 50.4 °F 48.4 °F 30 in Calm     93 % 0 in
05:21 50.4 °F 48.4 °F 30 in Calm     93 % 0 in
05:26 50.4 °F 48.4 °F 30 in Calm     93 % 0 in
05:31 50.4 °F 48.4 °F 30.1 in Calm     93 % 0 in
05:36 50.4 °F 48.4 °F 30.1 in Calm     93 % 0 in
05:41 50.4 °F 48.4 °F 30.1 in Calm     93 % 0 in
05:47 50.2 °F 48.2 °F 30.1 in Calm     93 % 0 in
05:52 50.2 °F 48.2 °F 30.1 in Calm     93 % 0 in
05:57 50.2 °F 48.2 °F 30.1 in Calm     93 % 0 in
06:02 50.2 °F 48.6 °F 30.1 in Calm     94 % 0 in
06:07 50.2 °F 48.6 °F 30.1 in Calm     94 % 0 in
06:12 50.2 °F 48.6 °F 30.1 in Calm     94 % 0 in
06:17 50.2 °F 48.6 °F 30.1 in Calm     94 % 0 in
06:22 50.2 °F 48.6 °F 30.1 in Calm     94 % 0 in
06:27 50 °F 48.4 °F 30.1 in Calm     94 % 0 in
06:32 50 °F 48.4 °F 30 in Calm     94 % 0 in
06:37 50 °F 48.4 °F 30 in Calm     94 % 0 in
06:42 50.2 °F 48.6 °F 30 in Calm     94 % 0 in
06:47 50.2 °F 48.6 °F 30 in Calm     94 % 0 in
06:52 50.2 °F 48.6 °F 30 in Calm     94 % 0 in
06:57 50.4 °F 48.7 °F 30 in Calm     94 % 0 in
07:02 50.4 °F 48.7 °F 30.1 in Calm     94 % 0 in
07:07 50.5 °F 49.3 °F 30.1 in Calm     95 % 0 in
07:12 50.7 °F 49.3 °F 30.1 in Calm     95 % 0 in
07:17 51.1 °F 49.6 °F 30 in Calm     95 % 0 in
07:22 51.4 °F 50.2 °F 30 in Calm     95 % 0 in
07:27 51.6 °F 50.2 °F 30 in Calm     95 % 0 in
07:32 52 °F 50.5 °F 30.1 in Calm     95 % 0 in
07:37 52.3 °F 51.1 °F 30.1 in Calm     95 % 0 in
07:42 52.5 °F 51.1 °F 30.1 in Calm   1.1 mph 95 % 0 in
07:47 53.1 °F 51.6 °F 30.1 in NW 0.2 mph 1.6 mph 95 % 0 in
07:52 53.2 °F 51.8 °F 30.1 in NNE 0.4 mph 1.6 mph 95 % 0 in
07:57 54 °F 52.5 °F 30.1 in ESE 0.7 mph 2 mph 95 % 0 in
08:02 54.5 °F 53.1 °F 30.1 in ESE 0.8 mph 2.5 mph 95 % 0 in
08:07 55 °F 53.6 °F 30.1 in East 0.5 mph 2.5 mph 95 % 0 in
08:12 55.9 °F 54.1 °F 30.1 in East 0.3 mph 2 mph 94 % 0 in
08:17 56.7 °F 55 °F 30.1 in ESE 1 mph 2.9 mph 94 % 0 in
08:22 57.6 °F 55.8 °F 30.1 in ESE 1.1 mph 2.9 mph 94 % 0 in
08:27 58.3 °F 56.7 °F 30.1 in ESE 1 mph 2.2 mph 94 % 0 in
08:32 59.2 °F 57.2 °F 30.1 in ESE 0.8 mph 2.5 mph 93 % 0 in
08:34 59.4 °F 57.4 °F 30.1 in ESE 0.7 mph 2.5 mph 93 % 0 in
08:39 60.3 °F 57.9 °F 30.1 in ESE 0.5 mph 2.5 mph 92 % 0 in
08:44 61 °F 58.3 °F 30.1 in East 0.4 mph 2 mph 91 % 0 in
08:49 61.7 °F 58.5 °F 30.1 in East 0.9 mph 2.9 mph 89 % 0 in
08:54 62.6 °F 58.5 °F 30.1 in ESE 1.2 mph 2.9 mph 86 % 0 in
08:59 63.1 °F 58.6 °F 30.1 in East 1.1 mph 2.9 mph 85 % 0 in
09:04 63.5 °F 58.3 °F 30.1 in East 1.1 mph 2.9 mph 83 % 0 in
09:09 64.2 °F 58.8 °F 30.1 in East 0.9 mph 2.5 mph 83 % 0 in
09:14 64.9 °F 59.4 °F 30.1 in East 0.8 mph 2.5 mph 82 % 0 in
09:19 65.5 °F 59.5 °F 30.1 in East 0.7 mph 2.9 mph 81 % 0 in
09:24 66.2 °F 59.5 °F 30.1 in ESE 0.8 mph 2.9 mph 79 % 0 in
09:29 66.6 °F 59.7 °F 30.1 in SE 1.3 mph 3.8 mph 79 % 0 in
09:34 67.1 °F 59.4 °F 30.1 in ESE 1.9 mph 3.8 mph 76 % 0 in
09:39 67.6 °F 60.3 °F 30.1 in ESE 2.2 mph 3.6 mph 77 % 0 in
09:44 68.4 °F 60.4 °F 30.1 in SE 2.3 mph 3.8 mph 76 % 0 in
09:49 68.7 °F 60.4 °F 30.1 in SSE 2 mph 3.8 mph 75 % 0 in
09:54 69.1 °F 60.4 °F 30.1 in SE 2 mph 4 mph 74 % 0 in
09:59 69.6 °F 60.3 °F 30.1 in SE 1.9 mph 4 mph 72 % 0 in
10:04 70 °F 60.1 °F 30.1 in SSE 1.6 mph 3.1 mph 71 % 0 in
10:09 70.5 °F 59.9 °F 30.1 in SE 1.7 mph 3.6 mph 69 % 0 in
10:14 71.1 °F 60.1 °F 30.1 in ESE 2.2 mph 3.8 mph 68 % 0 in
10:19 71.4 °F 59.5 °F 30.1 in ESE 2.4 mph 4 mph 66 % 0 in
10:24 72 °F 60.1 °F 30.1 in ESE 2.1 mph 4 mph 66 % 0 in
10:29 72.3 °F 59.5 °F 30.1 in ESE 2.1 mph 4 mph 64 % 0 in
10:39 73 °F 59.2 °F 30.1 in SE 1.5 mph 3.4 mph 62 % 0 in
10:44 73.4 °F 58.3 °F 30.1 in ESE 0.9 mph 2.9 mph 59 % 0 in
10:45 73.4 °F 58.3 °F 30.1 in ESE 1 mph 2.9 mph 59 % 0 in
10:50 73.6 °F 57.4 °F 30.1 in ENE 0.7 mph 2.5 mph 57 % 0 in
10:55 73.6 °F 56.5 °F 30.1 in NNE 1.3 mph 3.8 mph 55 % 0 in
11:00 73.8 °F 56.1 °F 30.1 in NE 1.5 mph 3.8 mph 54 % 0 in
11:05 74.1 °F 56.5 °F 30.1 in East 1 mph 3.6 mph 54 % 0 in
11:10 74.8 °F 56.7 °F 30.1 in East 1.7 mph 4.3 mph 53 % 0 in
11:15 75.2 °F 55.2 °F 30.1 in ESE 2.4 mph 4.3 mph 50 % 0 in
11:20 75.6 °F 55.6 °F 30.1 in ESE 2.4 mph 3.8 mph 50 % 0 in
11:25 75.9 °F 56.5 °F 30.1 in SE 2.3 mph 4.3 mph 51 % 0 in
11:35 76.3 °F 55.8 °F 30.1 in SSE 2.2 mph 5.6 mph 49 % 0 in
11:45 77 °F 55.8 °F 30.1 in SSW 2.1 mph 4.7 mph 48 % 0 in
11:50 77.4 °F 56.7 °F 30 in SSE 1.5 mph 3.6 mph 49 % 0 in
11:55 77.5 °F 55 °F 30 in ESE 1.7 mph 6.5 mph 46 % 0 in
12:00 77.9 °F 55.9 °F 30 in ESE 3.2 mph 7.2 mph 47 % 0 in
12:05 77.9 °F 54.9 °F 30 in ESE 2.9 mph 7.2 mph 45 % 0 in
12:10 78.1 °F 55.6 °F 30 in SSW 2 mph 5.4 mph 46 % 0 in
12:15 78.4 °F 55.9 °F 30 in SSE 2 mph 5.8 mph 46 % 0 in
12:20 78.4 °F 54.7 °F 30 in SW 3.5 mph 7.4 mph 44 % 0 in
12:25 78.6 °F 54.9 °F 30 in WSW 4.3 mph 7.4 mph 44 % 0 in
12:30 78.8 °F 54.3 °F 30 in WSW 2.8 mph 5.4 mph 43 % 0 in
12:35 78.8 °F 53.8 °F 30.1 in WSW 2.4 mph 6 mph 42 % 0 in
12:36 78.8 °F 53.8 °F 30.1 in WSW 2.5 mph 6 mph 42 % 0 in
12:46 78.8 °F 53.8 °F 30.1 in WSW 2.8 mph 9.8 mph 42 % 0 in
12:51 78.8 °F 53.1 °F 30.1 in WSW 3.9 mph 9.8 mph 41 % 0 in
12:56 79.3 °F 53.6 °F 30.1 in WSW 4.5 mph 8.5 mph 41 % 0 in
13:01 79.3 °F 53.6 °F 30.1 in WSW 3.6 mph 7.4 mph 41 % 0 in
13:06 79.7 °F 54.7 °F 30.1 in WSW 3.8 mph 7.4 mph 42 % 0 in
13:11 80.1 °F 54.1 °F 30.1 in WSW 3.6 mph 7.4 mph 41 % 0 in
13:16 80.2 °F 54.3 °F 30.1 in SW 3.3 mph 5.8 mph 41 % 0 in
13:21 80.4 °F 54.7 °F 30.1 in SW 3.9 mph 7.2 mph 41 % 0 in
13:26 80.4 °F 54.7 °F 30.1 in SW 3.9 mph 7.2 mph 41 % 0 in
13:31 80.6 °F 54 °F 30.1 in SW 3.1 mph 7.2 mph 40 % 0 in
13:36 81 °F 54.3 °F 30.1 in SW 2.8 mph 5.4 mph 40 % 0 in
13:41 81.3 °F 54.7 °F 30.1 in SW 1.9 mph 5.4 mph 40 % 0 in
13:46 81.5 °F 54.9 °F 30.1 in SW 1.9 mph 8.1 mph 40 % 0 in
13:51 81.5 °F 54.9 °F 30.1 in SW 2.8 mph 8.1 mph 40 % 0 in
13:56 81.5 °F 54.1 °F 30.1 in SW 3.3 mph 6 mph 39 % 0 in
14:01 81.3 °F 54.7 °F 30 in South 3.5 mph 6 mph 40 % 0 in
14:06 81.9 °F 55.2 °F 30 in ESE 3.2 mph 5.8 mph 40 % 0 in
14:11 81.9 °F 54.5 °F 30 in ESE 3.2 mph 5.8 mph 39 % 0 in
14:16 81.9 °F 55.2 °F 30 in East 2.5 mph 5.8 mph 40 % 0 in
14:22 82 °F 54.7 °F 30 in ESE 2.7 mph 5.8 mph 39 % 0 in
14:27 82.2 °F 54.9 °F 30 in ESE 3.4 mph 6.5 mph 39 % 0 in
14:32 82.4 °F 55 °F 30 in ESE 3.9 mph 7.8 mph 39 % 0 in
14:37 82.2 °F 54.9 °F 30 in ESE 3.7 mph 7.8 mph 39 % 0 in
14:41 82 °F 54.7 °F 30 in East 3.1 mph 5.6 mph 39 % 0 in
14:47 82 °F 54 °F 30 in East 2 mph 5.6 mph 38 % 0 in
14:52 82.4 °F 54.1 °F 30 in SE 2.4 mph 8.5 mph 38 % 0 in
14:57 82.2 °F 54.1 °F 30 in ESE 2.6 mph 8.5 mph 38 % 0 in
15:02 82.4 °F 53.4 °F 30 in ESE 2.3 mph 6 mph 37 % 0 in
15:07 82.6 °F 54.3 °F 30 in SE 2.5 mph 6 mph 38 % 0 in
15:12 82.8 °F 54.7 °F 30 in SE 2.1 mph 6.9 mph 38 % 0 in
15:17 82.8 °F 53.1 °F 30 in East 2.6 mph 6.9 mph 36 % 0 in
15:22 82.6 °F 53.8 °F 30 in ENE 2.5 mph 5.4 mph 37 % 0 in
15:27 82.9 °F 54 °F 30 in ESE 2.5 mph 4.9 mph 37 % 0 in
15:32 82.9 °F 54 °F 30 in South 2.2 mph 4.9 mph 37 % 0 in
15:37 83.3 °F 54.3 °F 30 in SSW 2.3 mph 4.9 mph 37 % 0 in
15:42 83.3 °F 53.6 °F 30 in South 2.7 mph 5.4 mph 36 % 0 in
15:47 83.3 °F 53.6 °F 30 in SSE 1.8 mph 5.4 mph 36 % 0 in
15:52 83.5 °F 52.9 °F 30 in ESE 2.1 mph 5.8 mph 35 % 0 in
15:57 83.5 °F 52.9 °F 30 in SSE 2.4 mph 5.8 mph 35 % 0 in
16:02 83.1 °F 52.5 °F 30 in WNW 2.1 mph 4.3 mph 35 % 0 in
16:07 83.1 °F 52.5 °F 30 in East 2.7 mph 6 mph 35 % 0 in
16:12 82.8 °F 52.3 °F 30 in East 2.1 mph 6 mph 35 % 0 in
16:17 82.8 °F 51.4 °F 30 in NE 2.2 mph 5.6 mph 34 % 0 in
16:22 83.1 °F 52.5 °F 30 in East 3.2 mph 7.4 mph 35 % 0 in
16:27 83.5 °F 52.9 °F 30 in SE 3.4 mph 7.4 mph 35 % 0 in
16:32 83.8 °F 53.2 °F 30 in SSE 2.7 mph 4.9 mph 35 % 0 in
16:37 84 °F 53.4 °F 30 in SSE 1.3 mph 4.3 mph 35 % 0 in
16:42 84 °F 52.5 °F 30 in ESE 1.2 mph 6 mph 34 % 0 in
16:47 84 °F 53.4 °F 30 in ESE 1.8 mph 6 mph 35 % 0 in
16:52 84 °F 53.4 °F 30 in SE 1.6 mph 5.6 mph 35 % 0 in
16:57 84.2 °F 53.6 °F 30 in SE 2.2 mph 5.6 mph 35 % 0 in
17:02 84.2 °F 52.9 °F 30 in SE 2.5 mph 5.4 mph 34 % 0 in
17:07 84.4 °F 52.9 °F 30 in SE 2.5 mph 4.9 mph 34 % 0 in
17:12 84.2 °F 52.9 °F 30 in SE 2.8 mph 4.9 mph 34 % 0 in
17:22 84.2 °F 52.9 °F 30 in ESE 1.2 mph 4.3 mph 34 % 0 in
17:27 84 °F 53.4 °F 30 in ESE 2.3 mph 6 mph 35 % 0 in
17:32 84 °F 53.4 °F 30 in SE 2.3 mph 6 mph 35 % 0 in
17:37 84 °F 53.4 °F 30 in SE 1.6 mph 3.6 mph 35 % 0 in
17:42 84 °F 53.4 °F 30 in SE 1.6 mph 3.8 mph 35 % 0 in
17:47 83.5 °F 52.9 °F 30 in SSE 1.9 mph 3.8 mph 35 % 0 in
17:52 82.9 °F 52.5 °F 30 in South 1.4 mph 3.8 mph 35 % 0 in
17:57 82.2 °F 51.8 °F 30 in SE 1.2 mph 3.8 mph 35 % 0 in
18:02 81.7 °F 51.4 °F 30 in SE 1.1 mph 3.8 mph 35 % 0 in
18:07 80.8 °F 50.5 °F 30 in ESE 2.1 mph 4.7 mph 35 % 0 in
18:12 80.4 °F 51.1 °F 30 in ESE 2.5 mph 4.7 mph 36 % 0 in
18:17 79.9 °F 50.5 °F 30 in ESE 1.6 mph 3.8 mph 36 % 0 in
18:22 79.3 °F 50.2 °F 30 in SE 1.3 mph 5.6 mph 36 % 0 in
18:27 78.8 °F 49.6 °F 30 in SE 1.9 mph 5.6 mph 36 % 0 in
18:32 78.4 °F 50 °F 30 in SE 2.7 mph 5.6 mph 37 % 0 in
18:37 77.5 °F 50.5 °F 30 in ESE 2 mph 4.3 mph 39 % 0 in
18:42 76.3 °F 50.7 °F 30 in North 1.4 mph 3.1 mph 41 % 0 in
18:47 75.4 °F 50 °F 30 in NNW 1.4 mph 3.1 mph 41 % 0 in
18:52 74.5 °F 49.8 °F 30 in NNW 1.7 mph 3.1 mph 42 % 0 in
18:55 74.1 °F 50.2 °F 30 in NNW 1.2 mph 3.6 mph 43 % 0 in
19:00 73.4 °F 50.2 °F 30 in NNW 0.9 mph 3.6 mph 44 % 0 in
19:05 72.7 °F 50.7 °F 30 in NNW 0.5 mph 2.7 mph 46 % 0 in
19:10 72.1 °F 50.2 °F 30 in NNW 0.3 mph 2.5 mph 46 % 0 in
19:15 71.6 °F 50.4 °F 30 in NNW 0.9 mph 3.8 mph 47 % 0 in
19:20 71.2 °F 50.5 °F 30 in NNW 1.1 mph 3.8 mph 48 % 0 in
19:25 70.9 °F 50.7 °F 30 in NNW 1.5 mph 4 mph 49 % 0 in
19:29 70.7 °F 51.1 °F 30 in NW 1.7 mph 4 mph 50 % 0 in
19:34 70.2 °F 51.3 °F 30 in NNW 1.4 mph 2.7 mph 51 % 0 in
19:39 69.6 °F 51.3 °F 30 in NW 1.1 mph 2.9 mph 52 % 0 in
19:44 69.3 °F 51.4 °F 30 in NNW 1.1 mph 3.4 mph 53 % 0 in
19:49 68.9 °F 51.6 °F 30 in North 1.4 mph 3.4 mph 54 % 0 in
19:54 68.4 °F 52.5 °F 30 in North 0.8 mph 2.9 mph 57 % 0 in
19:59 68 °F 52.7 °F 30 in Calm   0.9 mph 58 % 0 in
20:04 67.6 °F 52.9 °F 30 in Calm   0.9 mph 59 % 0 in
20:09 67.1 °F 52.7 °F 30 in Calm   1.1 mph 60 % 0 in
20:14 66.9 °F 53.1 °F 30 in WSW 0.5 mph 2.2 mph 61 % 0 in
20:16 66.7 °F 52.9 °F 30 in WSW 0.5 mph 2.2 mph 61 % 0 in
20:21 66.4 °F 53.4 °F 30 in WNW 0.4 mph 2.2 mph 63 % 0 in
20:26 66 °F 53.4 °F 30 in Calm     64 % 0 in
20:31 65.8 °F 53.2 °F 30 in Calm     64 % 0 in
20:36 65.5 °F 53.4 °F 30 in Calm     65 % 0 in
20:41 65.3 °F 53.2 °F 30 in Calm     65 % 0 in
20:46 64.9 °F 53.2 °F 30 in Calm     66 % 0 in
20:51 64.6 °F 53.4 °F 30 in Calm   1.1 mph 67 % 0 in
20:56 64.4 °F 53.6 °F 30 in Calm   1.1 mph 68 % 0 in
21:01 64.2 °F 53.4 °F 30 in Calm     68 % 0 in
21:06 63.9 °F 53.1 °F 30 in Calm     68 % 0 in
21:11 63.7 °F 53.2 °F 30 in Calm     69 % 0 in
21:16 63.5 °F 53.1 °F 30 in Calm     69 % 0 in
21:21 63.1 °F 53.2 °F 30 in Calm     70 % 0 in
21:22 63.1 °F 53.2 °F 30 in Calm     70 % 0 in
21:27 63 °F 53.1 °F 30 in Calm     70 % 0 in
21:32 62.8 °F 52.9 °F 30 in Calm     70 % 0 in
21:37 62.6 °F 53.1 °F 30 in Calm     71 % 0 in
21:42 62.4 °F 52.9 °F 30 in Calm     71 % 0 in
21:47 62.2 °F 53.1 °F 30 in Calm     72 % 0 in
21:52 62.1 °F 52.9 °F 30 in Calm     72 % 0 in
21:57 61.9 °F 52.9 °F 30 in Calm     72 % 0 in
22:02 61.7 °F 53.1 °F 30 in Calm     73 % 0 in
22:05 61.5 °F 52.9 °F 30 in Calm     73 % 0 in
22:10 61.5 °F 52.9 °F 30 in Calm     73 % 0 in
22:15 61.3 °F 52.5 °F 30 in Calm     73 % 0 in
22:20 61.2 °F 52.3 °F 30 in Calm     73 % 0 in
22:30 60.8 °F 52.2 °F 30 in Calm     73 % 0 in
22:35 60.6 °F 52.5 °F 30 in Calm     75 % 0 in
22:40 60.4 °F 52.9 °F 30 in Calm     76 % 0 in
22:45 60.3 °F 52.7 °F 30 in Calm     76 % 0 in
22:51 60.1 °F 52.5 °F 30 in Calm     76 % 0 in
22:56 59.9 °F 52.7 °F 30 in Calm     77 % 0 in
23:01 59.7 °F 52.5 °F 30 in Calm     77 % 0 in
23:06 59.7 °F 52.5 °F 30 in Calm     77 % 0 in
23:12 59.4 °F 52.5 °F 30 in Calm     78 % 0 in
23:17 59.4 °F 52.5 °F 30 in Calm     78 % 0 in
23:22 59.2 °F 52.3 °F 30 in Calm     78 % 0 in
23:27 59.2 °F 52.3 °F 30 in Calm     78 % 0 in
23:32 59 °F 52.5 °F 30 in Calm     79 % 0 in
23:37 58.8 °F 52.3 °F 30 in Calm     79 % 0 in
23:42 58.8 °F 52.3 °F 30 in Calm     79 % 0 in
23:47 58.5 °F 52.3 °F 30 in Calm     80 % 0 in
23:52 58.5 °F 52.3 °F 30 in Calm     80 % 0 in
23:57 58.3 °F 52.2 °F 30 in Calm     80 % 0 in
Vremenska postaja Senovo
Podatki zbrani iz Weather Underground - 3 mb

Script developed by  Jim McMurry - jmcmurry@mwt.net Adapted for the template by  Wim van der Kuil - Leuven-Template.eu

Vremenski podatki so objavljeni na:

WeatherCloud

Weather Underground

AWEKAS

HAMweather, WeatherForYou, PWS Weather

MapView

Geostik

Slovenia weather network

Oprema, ki se uporablja:

Vremenski program
Cumulus

Cumulus